Time,TemperatureF,DewpointF,PressureIn,WindDirection,WindDirectionDegrees,WindSpeedMPH,WindSpeedGustMPH,Humidity,HourlyPrecipIn,Conditions,Clouds,dailyrainin,SoftwareType,DateUTC
2013-07-29 00:05:00,50.1,50.1,30.10,NW,320,2.0,3.0,100,0.00,,,0.00,Wunderground v.1.15,2013-07-29 08:05:00,
2013-07-29 00:15:00,49.9,49.9,30.10,NW,320,0.0,1.0,100,0.00,,,0.00,Wunderground v.1.15,2013-07-29 08:15:00,
2013-07-29 00:20:00,49.8,49.8,30.10,NW,320,0.0,0.0,100,0.00,,,0.00,Wunderground v.1.15,2013-07-29 08:20:00,
2013-07-29 00:25:00,49.8,49.8,30.10,NW,320,0.0,0.0,100,0.00,,,0.00,Wunderground v.1.15,2013-07-29 08:25:00,
2013-07-29 00:35:00,49.6,49.6,30.10,NW,320,0.0,2.0,100,0.00,,,0.00,Wunderground v.1.15,2013-07-29 08:35:00,
2013-07-29 00:45:00,49.6,49.6,30.10,NW,320,0.0,1.0,100,0.00,,,0.00,Wunderground v.1.15,2013-07-29 08:45:00,
2013-07-29 00:55:00,49.6,49.6,30.10,NW,320,0.0,0.0,100,0.00,,,0.00,Wunderground v.1.15,2013-07-29 08:55:00,
2013-07-29 01:00:00,49.8,49.8,30.10,NW,320,0.0,0.0,100,0.00,,,0.00,Wunderground v.1.15,2013-07-29 09:00:00,
2013-07-29 01:10:00,49.8,49.8,30.10,NW,320,0.0,0.0,100,0.00,,,0.00,Wunderground v.1.15,2013-07-29 09:10:00,
2013-07-29 01:20:00,49.8,49.8,30.10,NW,320,0.0,0.0,100,0.00,,,0.00,Wunderground v.1.15,2013-07-29 09:20:00,
2013-07-29 01:25:00,49.6,49.6,30.10,NW,320,0.0,0.0,100,0.00,,,0.00,Wunderground v.1.15,2013-07-29 09:25:00,
2013-07-29 01:35:00,49.8,49.8,30.10,NW,320,0.0,0.0,100,0.00,,,0.00,Wunderground v.1.15,2013-07-29 09:35:00,
2013-07-29 01:45:00,49.8,49.8,30.10,NW,320,0.0,0.0,100,0.00,,,0.00,Wunderground v.1.15,2013-07-29 09:45:00,
2013-07-29 01:55:00,49.8,49.8,30.10,NW,320,0.0,0.0,100,0.00,,,0.00,Wunderground v.1.15,2013-07-29 09:55:00,
2013-07-29 02:00:00,49.8,49.8,30.10,NW,320,0.0,0.0,100,0.00,,,0.00,Wunderground v.1.15,2013-07-29 10:00:00,
2013-07-29 02:10:00,49.8,49.8,30.10,NW,320,0.0,0.0,100,0.00,,,0.00,Wunderground v.1.15,2013-07-29 10:10:00,
2013-07-29 02:20:00,49.9,49.9,30.11,NW,320,0.0,0.0,100,0.00,,,0.00,Wunderground v.1.15,2013-07-29 10:20:00,
2013-07-29 02:30:00,49.9,49.9,30.11,NW,320,0.0,0.0,100,0.00,,,0.00,Wunderground v.1.15,2013-07-29 10:30:00,
2013-07-29 02:40:00,50.1,50.1,30.11,NW,320,0.0,0.0,100,0.00,,,0.00,Wunderground v.1.15,2013-07-29 10:40:00,
2013-07-29 02:50:00,50.1,50.1,30.11,NW,320,0.0,0.0,100,0.00,,,0.00,Wunderground v.1.15,2013-07-29 10:50:00,
2013-07-29 02:55:00,50.2,50.2,30.11,NW,320,0.0,1.0,100,0.00,,,0.00,Wunderground v.1.15,2013-07-29 10:55:00,
2013-07-29 03:15:00,50.4,50.4,30.11,NW,320,1.0,2.0,100,0.00,,,0.00,Wunderground v.1.15,2013-07-29 11:15:00,
2013-07-29 03:25:00,50.8,50.8,30.11,NW,320,2.0,2.0,100,0.00,,,0.00,Wunderground v.1.15,2013-07-29 11:25:00,
2013-07-29 03:35:00,51.0,51.0,30.11,NW,320,2.0,2.0,100,0.00,,,0.00,Wunderground v.1.15,2013-07-29 11:35:00,
2013-07-29 03:50:00,51.1,51.1,30.10,NW,323,2.0,2.0,100,0.00,,,0.00,Wunderground v.1.15,2013-07-29 11:50:00,
2013-07-29 03:55:00,51.3,51.3,30.10,NW,323,3.0,3.0,100,0.00,,,0.00,Wunderground v.1.15,2013-07-29 11:55:00,
2013-07-29 04:05:00,51.1,51.1,30.10,NW,321,1.0,3.0,100,0.00,,,0.00,Wunderground v.1.15,2013-07-29 12:05:00,
2013-07-29 04:20:00,51.1,51.1,30.10,NW,318,4.0,4.0,100,0.00,,,0.00,Wunderground v.1.15,2013-07-29 12:20:00,
2013-07-29 04:25:00,51.0,51.0,30.10,NW,318,3.0,4.0,100,0.00,,,0.00,Wunderground v.1.15,2013-07-29 12:25:00,
2013-07-29 04:31:00,51.1,51.1,30.10,NW,318,2.0,2.0,100,0.00,,,0.00,Wunderground v.1.15,2013-07-29 12:31:00,
2013-07-29 04:40:00,51.0,51.0,30.10,NW,318,0.0,0.0,100,0.00,,,0.00,Wunderground v.1.15,2013-07-29 12:40:00,
2013-07-29 04:50:00,51.0,51.0,30.10,NW,318,1.0,2.0,100,0.00,,,0.00,Wunderground v.1.15,2013-07-29 12:50:00,
2013-07-29 05:00:00,51.1,51.1,30.10,NNW,340,2.0,3.0,100,0.00,,,0.00,Wunderground v.1.15,2013-07-29 13:00:00,
2013-07-29 05:10:00,51.3,51.3,30.10,NNW,332,3.0,3.0,100,0.00,,,0.00,Wunderground v.1.15,2013-07-29 13:10:00,
2013-07-29 05:20:00,51.3,51.3,30.10,NNW,330,3.0,3.0,100,0.00,,,0.00,Wunderground v.1.15,2013-07-29 13:20:00,
2013-07-29 05:25:00,51.4,51.4,30.10,NNW,330,2.0,3.0,100,0.00,,,0.00,Wunderground v.1.15,2013-07-29 13:25:00,
2013-07-29 05:35:00,51.3,51.3,30.11,NNW,330,2.0,3.0,100,0.00,,,0.00,Wunderground v.1.15,2013-07-29 13:35:00,
2013-07-29 05:40:00,51.3,51.3,30.11,NNW,330,2.0,2.0,100,0.00,,,0.00,Wunderground v.1.15,2013-07-29 13:40:00,
2013-07-29 05:50:00,51.1,51.1,30.11,NNW,328,3.0,3.0,100,0.00,,,0.00,Wunderground v.1.15,2013-07-29 13:50:00,
2013-07-29 06:05:00,51.1,51.1,30.11,NNW,341,3.0,6.0,100,0.00,,,0.00,Wunderground v.1.15,2013-07-29 14:05:00,
2013-07-29 06:10:00,51.1,51.1,30.11,NNW,341,3.0,3.0,100,0.00,,,0.00,Wunderground v.1.15,2013-07-29 14:10:00,
2013-07-29 06:15:00,51.0,51.0,30.11,NNW,341,3.0,3.0,100,0.00,,,0.00,Wunderground v.1.15,2013-07-29 14:15:00,
2013-07-29 06:30:00,51.0,51.0,30.10,NNW,331,4.0,5.0,100,0.00,,,0.00,Wunderground v.1.15,2013-07-29 14:30:00,
2013-07-29 06:35:00,51.0,51.0,30.10,NNW,332,4.0,5.0,100,0.00,,,0.00,Wunderground v.1.15,2013-07-29 14:35:00,
2013-07-29 06:45:00,50.8,50.8,30.10,NNW,332,3.0,3.0,100,0.00,,,0.00,Wunderground v.1.15,2013-07-29 14:45:00,
2013-07-29 06:55:00,50.8,50.8,30.10,NNW,334,1.0,4.0,100,0.00,,,0.00,Wunderground v.1.15,2013-07-29 14:55:00,
2013-07-29 07:00:00,50.8,50.8,30.10,NNW,334,2.0,2.0,100,0.00,,,0.00,Wunderground v.1.15,2013-07-29 15:00:00,
2013-07-29 07:10:00,50.7,50.7,30.10,NNW,334,1.0,1.0,100,0.00,,,0.00,Wunderground v.1.15,2013-07-29 15:10:00,
2013-07-29 07:20:00,50.5,50.5,30.11,NNW,334,0.0,0.0,100,0.00,,,0.00,Wunderground v.1.15,2013-07-29 15:20:00,
2013-07-29 07:25:00,50.8,50.8,30.11,NNW,334,1.0,2.0,100,0.00,,,0.00,Wunderground v.1.15,2013-07-29 15:25:00,
2013-07-29 07:35:00,51.0,51.0,30.10,NNW,334,1.0,3.0,100,0.00,,,0.00,Wunderground v.1.15,2013-07-29 15:35:00,
2013-07-29 07:45:00,51.0,51.0,30.11,NNW,341,3.0,3.0,100,0.00,,,0.00,Wunderground v.1.15,2013-07-29 15:45:00,
2013-07-29 07:55:00,51.1,51.1,30.11,NNW,337,3.0,5.0,100,0.00,,,0.00,Wunderground v.1.15,2013-07-29 15:55:00,
2013-07-29 08:00:00,51.1,51.1,30.11,NNW,337,3.0,5.0,100,0.00,,,0.00,Wunderground v.1.15,2013-07-29 16:00:00,
2013-07-29 08:05:00,51.1,51.1,30.11,NNW,337,3.0,5.0,100,0.00,,,0.00,Wunderground v.1.15,2013-07-29 16:05:00,
2013-07-29 08:15:00,51.1,51.1,30.11,NNW,337,2.0,3.0,100,0.00,,,0.00,Wunderground v.1.15,2013-07-29 16:15:00,
2013-07-29 08:25:00,51.1,51.1,30.11,NNW,337,2.0,5.0,100,0.00,,,0.00,Wunderground v.1.15,2013-07-29 16:25:00,
2013-07-29 08:30:00,51.3,51.3,30.11,NNW,337,3.0,3.0,100,0.00,,,0.00,Wunderground v.1.15,2013-07-29 16:30:00,
2013-07-29 08:40:00,51.3,51.3,30.11,North,351,2.0,4.0,100,0.00,,,0.00,Wunderground v.1.15,2013-07-29 16:40:00,
2013-07-29 08:50:00,51.4,51.4,30.12,NNW,348,5.0,5.0,100,0.00,,,0.00,Wunderground v.1.15,2013-07-29 16:50:00,
2013-07-29 08:55:00,51.6,51.6,30.12,NNW,334,4.0,6.0,100,0.00,,,0.00,Wunderground v.1.15,2013-07-29 16:55:00,
2013-07-29 09:05:00,51.6,51.6,30.12,NNW,334,5.0,5.0,100,0.00,,,0.00,Wunderground v.1.15,2013-07-29 17:05:00,
2013-07-29 09:15:00,51.7,51.7,30.12,NNW,334,4.0,6.0,100,0.00,,,0.00,Wunderground v.1.15,2013-07-29 17:15:00,
2013-07-29 09:25:00,51.9,51.9,30.12,NNW,347,4.0,4.0,100,0.00,,,0.00,Wunderground v.1.15,2013-07-29 17:25:00,
2013-07-29 09:40:00,51.6,51.6,30.12,NNW,347,5.0,5.0,100,0.00,,,0.00,Wunderground v.1.15,2013-07-29 17:40:00,
2013-07-29 09:55:00,51.7,51.7,30.12,NNW,341,4.0,6.0,100,0.00,,,0.00,Wunderground v.1.15,2013-07-29 17:55:00,
2013-07-29 10:10:00,51.9,51.9,30.13,NNW,338,2.0,2.0,100,0.00,,,0.00,Wunderground v.1.15,2013-07-29 18:10:00,
2013-07-29 10:20:00,51.9,51.9,30.13,NNW,340,3.0,3.0,100,0.00,,,0.00,Wunderground v.1.15,2013-07-29 18:20:00,
2013-07-29 10:25:00,51.9,51.9,30.13,NNW,340,4.0,5.0,100,0.00,,,0.00,Wunderground v.1.15,2013-07-29 18:25:00,
2013-07-29 10:35:00,51.9,51.9,30.13,NNW,340,5.0,5.0,100,0.00,,,0.00,Wunderground v.1.15,2013-07-29 18:35:00,
2013-07-29 10:50:00,52.0,52.0,30.13,NNW,340,5.0,5.0,100,0.00,,,0.00,Wunderground v.1.15,2013-07-29 18:50:00,
2013-07-29 10:55:00,52.2,52.2,30.13,NNW,340,4.0,5.0,100,0.00,,,0.00,Wunderground v.1.15,2013-07-29 18:55:00,
2013-07-29 11:05:00,52.3,52.3,30.13,NNW,340,3.0,5.0,100,0.00,,,0.00,Wunderground v.1.15,2013-07-29 19:05:00,
2013-07-29 11:10:00,52.3,52.3,30.13,NNW,340,3.0,4.0,100,0.00,,,0.00,Wunderground v.1.15,2013-07-29 19:10:00,
2013-07-29 11:20:00,52.6,52.6,30.13,NNW,340,3.0,3.0,100,0.00,,,0.00,Wunderground v.1.15,2013-07-29 19:20:00,
2013-07-29 11:30:00,53.2,53.2,30.13,NNW,340,3.0,4.0,100,0.00,,,0.00,Wunderground v.1.15,2013-07-29 19:30:00,
2013-07-29 11:35:00,53.5,53.5,30.13,NNW,345,4.0,7.0,100,0.00,,,0.00,Wunderground v.1.15,2013-07-29 19:35:00,
2013-07-29 11:45:00,53.5,53.5,30.13,North,349,5.0,7.0,100,0.00,,,0.00,Wunderground v.1.15,2013-07-29 19:45:00,
2013-07-29 12:00:00,53.6,53.6,30.13,NW,316,5.0,6.0,100,0.00,,,0.00,Wunderground v.1.15,2013-07-29 20:00:00,
2013-07-29 12:10:00,54.1,54.1,30.13,NW,320,6.0,6.0,100,0.00,,,0.00,Wunderground v.1.15,2013-07-29 20:10:00,
2013-07-29 12:20:00,53.9,53.9,30.13,NW,313,7.0,10.0,100,0.00,,,0.00,Wunderground v.1.15,2013-07-29 20:20:00,
2013-07-29 12:25:00,53.9,53.9,30.13,NNW,330,7.0,10.0,100,0.00,,,0.00,Wunderground v.1.15,2013-07-29 20:25:00,
2013-07-29 12:35:00,53.9,53.6,30.14,NW,323,7.0,7.0,99,0.00,,,0.00,Wunderground v.1.15,2013-07-29 20:35:00,
2013-07-29 12:50:00,54.7,53.0,30.14,NW,323,9.0,10.0,94,0.00,,,0.00,Wunderground v.1.15,2013-07-29 20:50:00,
2013-07-29 12:55:00,54.5,52.8,30.14,NNW,344,11.0,13.0,94,0.00,,,0.00,Wunderground v.1.15,2013-07-29 20:55:00,
2013-07-29 13:05:00,54.7,52.7,30.14,NNW,345,11.0,12.0,93,0.00,,,0.00,Wunderground v.1.15,2013-07-29 21:05:00,
2013-07-29 13:15:00,54.8,51.6,30.14,North,352,10.0,13.0,89,0.00,,,0.00,Wunderground v.1.15,2013-07-29 21:15:00,
2013-07-29 13:20:00,55.0,51.8,30.14,NNW,348,9.0,9.0,89,0.00,,,0.00,Wunderground v.1.15,2013-07-29 21:20:00,
2013-07-29 13:30:00,56.2,52.1,30.14,NNW,328,7.0,7.0,86,0.00,,,0.00,Wunderground v.1.15,2013-07-29 21:30:00,
2013-07-29 13:40:00,56.2,52.1,30.14,NNW,330,8.0,8.0,86,0.00,,,0.00,Wunderground v.1.15,2013-07-29 21:40:00,
2013-07-29 13:45:00,55.9,51.8,30.14,North,351,9.0,9.0,86,0.00,,,0.00,Wunderground v.1.15,2013-07-29 21:45:00,
2013-07-29 13:55:00,55.7,51.6,30.14,NNW,330,9.0,9.0,86,0.00,,,0.00,Wunderground v.1.15,2013-07-29 21:55:00,
2013-07-29 14:05:00,55.9,51.8,30.14,NNW,331,8.0,8.0,86,0.00,,,0.00,Wunderground v.1.15,2013-07-29 22:05:00,
2013-07-29 14:15:00,56.3,51.5,30.14,NNW,341,8.0,8.0,84,0.00,,,0.00,Wunderground v.1.15,2013-07-29 22:15:00,
2013-07-29 14:25:00,56.7,51.9,30.14,NNW,340,10.0,11.0,84,0.00,,,0.00,Wunderground v.1.15,2013-07-29 22:25:00,
2013-07-29 14:35:00,56.7,51.9,30.14,NNW,330,9.0,9.0,84,0.00,,,0.00,Wunderground v.1.15,2013-07-29 22:35:00,
2013-07-29 14:45:00,56.7,51.9,30.15,North,351,8.0,9.0,84,0.00,,,0.00,Wunderground v.1.15,2013-07-29 22:45:00,
2013-07-29 15:00:00,56.7,51.9,30.15,NNW,335,6.0,6.0,84,0.00,,,0.00,Wunderground v.1.15,2013-07-29 23:00:00,
2013-07-29 15:05:00,56.6,52.1,30.15,NW,311,7.0,7.0,85,0.00,,,0.00,Wunderground v.1.15,2013-07-29 23:05:00,
2013-07-29 15:15:00,56.5,51.4,30.15,NNW,327,7.0,10.0,83,0.00,,,0.00,Wunderground v.1.15,2013-07-29 23:15:00,
2013-07-29 15:25:00,56.7,51.9,30.15,NW,317,8.0,8.0,84,0.00,,,0.00,Wunderground v.1.15,2013-07-29 23:25:00,
2013-07-29 15:35:00,56.7,51.3,30.15,NNW,327,9.0,14.0,82,0.00,,,0.00,Wunderground v.1.15,2013-07-29 23:35:00,
2013-07-29 15:45:00,57.2,51.8,30.14,NW,320,9.0,12.0,82,0.00,,,0.00,Wunderground v.1.15,2013-07-29 23:45:00,
2013-07-29 15:55:00,57.8,51.7,30.14,WNW,299,9.0,16.0,80,0.00,,,0.00,Wunderground v.1.15,2013-07-29 23:55:00,
2013-07-29 16:10:00,58.4,51.6,30.14,NNW,341,10.0,10.0,78,0.00,,,0.00,Wunderground v.1.15,2013-07-30 00:10:00,
2013-07-29 16:15:00,58.4,50.9,30.14,NNW,330,10.0,10.0,76,0.00,,,0.00,Wunderground v.1.15,2013-07-30 00:15:00,
2013-07-29 16:25:00,58.6,51.1,30.14,NW,318,11.0,11.0,76,0.00,,,0.00,Wunderground v.1.15,2013-07-30 00:25:00,
2013-07-29 16:35:00,58.3,51.1,30.14,NNW,331,10.0,11.0,77,0.00,,,0.00,Wunderground v.1.15,2013-07-30 00:35:00,
2013-07-29 16:45:00,58.4,51.6,30.14,NNW,340,10.0,11.0,78,0.00,,,0.00,Wunderground v.1.15,2013-07-30 00:45:00,
2013-07-29 16:55:00,58.6,51.1,30.14,North,352,9.0,11.0,76,0.00,,,0.00,Wunderground v.1.15,2013-07-30 00:55:00,
2013-07-29 17:10:00,58.6,50.7,30.14,NW,313,9.0,12.0,75,0.00,,,0.00,Wunderground v.1.15,2013-07-30 01:10:00,
2013-07-29 17:20:00,58.6,50.3,30.14,NNW,345,9.0,11.0,74,0.00,,,0.00,Wunderground v.1.15,2013-07-30 01:20:00,
2013-07-29 17:25:00,58.6,49.6,30.14,NNW,340,8.0,11.0,72,0.00,,,0.00,Wunderground v.1.15,2013-07-30 01:25:00,
2013-07-29 17:35:00,58.9,50.3,30.14,NNW,342,7.0,8.0,73,0.00,,,0.00,Wunderground v.1.15,2013-07-30 01:35:00,
2013-07-29 17:45:00,59.2,50.2,30.14,NNW,330,6.0,7.0,72,0.00,,,0.00,Wunderground v.1.15,2013-07-30 01:45:00,
2013-07-29 17:55:00,58.9,49.1,30.14,NW,318,7.0,8.0,70,0.00,,,0.00,Wunderground v.1.15,2013-07-30 01:55:00,
2013-07-29 18:05:00,58.9,49.9,30.14,NW,310,8.0,11.0,72,0.00,,,0.00,Wunderground v.1.15,2013-07-30 02:05:00,
2013-07-29 18:15:00,58.7,50.1,30.14,NNW,331,8.0,8.0,73,0.00,,,0.00,Wunderground v.1.15,2013-07-30 02:15:00,
2013-07-29 18:20:00,58.7,49.3,30.14,NNW,331,7.0,7.0,71,0.00,,,0.00,Wunderground v.1.15,2013-07-30 02:20:00,
2013-07-29 18:30:00,58.4,49.4,30.14,North,5,8.0,8.0,72,0.00,,,0.00,Wunderground v.1.15,2013-07-30 02:30:00,
2013-07-29 18:40:00,58.0,50.1,30.14,NNW,327,7.0,7.0,75,0.00,,,0.00,Wunderground v.1.15,2013-07-30 02:40:00,
2013-07-29 18:55:00,57.2,51.4,30.14,NNW,330,6.0,7.0,81,0.00,,,0.00,Wunderground v.1.15,2013-07-30 02:55:00,
2013-07-29 19:05:00,56.9,51.1,30.14,NNW,342,6.0,6.0,81,0.00,,,0.00,Wunderground v.1.15,2013-07-30 03:05:00,
2013-07-29 19:15:00,57.2,50.7,30.14,NNW,331,6.0,6.0,79,0.00,,,0.00,Wunderground v.1.15,2013-07-30 03:15:00,
2013-07-29 19:20:00,57.5,50.7,30.14,NNW,341,6.0,8.0,78,0.00,,,0.00,Wunderground v.1.15,2013-07-30 03:20:00,
2013-07-29 19:30:00,57.5,50.3,30.13,NNW,330,6.0,6.0,77,0.00,,,0.00,Wunderground v.1.15,2013-07-30 03:30:00,
2013-07-29 19:35:00,57.6,51.5,30.13,NNW,348,6.0,7.0,80,0.00,,,0.00,Wunderground v.1.15,2013-07-30 03:35:00,
2013-07-29 19:50:00,57.3,51.5,30.13,North,352,5.0,5.0,81,0.00,,,0.00,Wunderground v.1.15,2013-07-30 03:50:00,
2013-07-29 20:00:00,57.3,50.5,30.13,North,5,6.0,6.0,78,0.00,,,0.00,Wunderground v.1.15,2013-07-30 04:00:00,
2013-07-29 20:05:00,57.2,50.7,30.13,North,1,6.0,6.0,79,0.00,,,0.00,Wunderground v.1.15,2013-07-30 04:05:00,
2013-07-29 20:10:00,57.0,50.9,30.13,North,358,6.0,8.0,80,0.00,,,0.00,Wunderground v.1.15,2013-07-30 04:10:00,
2013-07-29 20:15:00,57.0,51.2,30.13,NNW,347,5.0,8.0,81,0.00,,,0.00,Wunderground v.1.15,2013-07-30 04:15:00,
2013-07-29 20:25:00,57.2,51.8,30.13,North,355,5.0,5.0,82,0.00,,,0.00,Wunderground v.1.15,2013-07-30 04:25:00,
2013-07-29 20:30:00,57.2,51.1,30.13,North,349,4.0,4.0,80,0.00,,,0.00,Wunderground v.1.15,2013-07-30 04:30:00,
2013-07-29 20:40:00,57.0,51.2,30.13,NNW,347,4.0,4.0,81,0.00,,,0.00,Wunderground v.1.15,2013-07-30 04:40:00,
2013-07-29 20:50:00,57.2,51.4,30.13,NNW,334,4.0,4.0,81,0.00,,,0.00,Wunderground v.1.15,2013-07-30 04:50:00,
2013-07-29 21:00:00,56.5,51.4,30.13,WNW,301,4.0,4.0,83,0.00,,,0.00,Wunderground v.1.15,2013-07-30 05:00:00,
2013-07-29 21:10:00,56.0,51.2,30.13,NW,316,3.0,3.0,84,0.00,,,0.00,Wunderground v.1.15,2013-07-30 05:10:00,
2013-07-29 21:20:00,56.2,50.8,30.13,NNW,341,4.0,4.0,82,0.00,,,0.00,Wunderground v.1.15,2013-07-30 05:20:00,
2013-07-29 21:25:00,56.2,50.8,30.13,North,352,5.0,7.0,82,0.00,,,0.00,Wunderground v.1.15,2013-07-30 05:25:00,
2013-07-29 21:30:00,56.0,50.9,30.12,NNW,337,5.0,6.0,83,0.00,,,0.00,Wunderground v.1.15,2013-07-30 05:30:00,
2013-07-29 21:40:00,55.9,51.5,30.12,NNW,335,4.0,5.0,85,0.00,,,0.00,Wunderground v.1.15,2013-07-30 05:40:00,
2013-07-29 21:50:00,55.4,51.0,30.13,NW,318,3.0,3.0,85,0.00,,,0.00,Wunderground v.1.15,2013-07-30 05:50:00,
2013-07-29 21:55:00,55.4,51.3,30.13,NW,318,2.0,3.0,86,0.00,,,0.00,Wunderground v.1.15,2013-07-30 05:55:00,
2013-07-29 22:05:00,55.3,51.2,30.13,NW,318,1.0,1.0,86,0.00,,,0.00,Wunderground v.1.15,2013-07-30 06:05:00,
2013-07-29 22:15:00,55.3,51.2,30.13,NW,318,0.0,1.0,86,0.00,,,0.00,Wunderground v.1.15,2013-07-30 06:15:00,
2013-07-29 22:25:00,55.0,51.2,30.13,NW,318,1.0,1.0,87,0.00,,,0.00,Wunderground v.1.15,2013-07-30 06:25:00,
2013-07-29 22:30:00,55.0,51.2,30.13,WSW,253,1.0,2.0,87,0.00,,,0.00,Wunderground v.1.15,2013-07-30 06:30:00,
2013-07-29 22:40:00,54.7,51.5,30.13,South,170,2.0,2.0,89,0.00,,,0.00,Wunderground v.1.15,2013-07-30 06:40:00,
2013-07-29 22:50:00,54.5,51.6,30.13,South,170,0.0,2.0,90,0.00,,,0.00,Wunderground v.1.15,2013-07-30 06:50:00,
2013-07-29 23:00:00,54.2,51.3,30.13,South,170,1.0,1.0,90,0.00,,,0.00,Wunderground v.1.15,2013-07-30 07:00:00,
2013-07-29 23:05:00,54.2,51.6,30.13,South,170,0.0,1.0,91,0.00,,,0.00,Wunderground v.1.15,2013-07-30 07:05:00,
2013-07-29 23:15:00,53.9,51.6,30.13,South,170,0.0,1.0,92,0.00,,,0.00,Wunderground v.1.15,2013-07-30 07:15:00,
2013-07-29 23:25:00,53.8,51.8,30.13,South,170,0.0,0.0,93,0.00,,,0.00,Wunderground v.1.15,2013-07-30 07:25:00,
2013-07-29 23:35:00,53.5,51.5,30.13,South,170,0.0,0.0,93,0.00,,,0.00,Wunderground v.1.15,2013-07-30 07:35:00,
2013-07-29 23:45:00,53.3,51.9,30.13,South,170,0.0,2.0,95,0.00,,,0.00,Wunderground v.1.15,2013-07-30 07:45:00,
2013-07-29 23:50:00,53.2,52.1,30.13,South,170,0.0,0.0,96,0.00,,,0.00,Wunderground v.1.15,2013-07-30 07:50:00,